Back to catalog

STARLINK-32849

AliveCommunicationsVLEO
NORAD 62872·PAYLOAD·🇺🇸 United States

Launched Feb 1, 2025 from Vandenberg Space Force Base

Loading…

Next Passes (next 24 hours)

TLE

FreshSource: CelesTrak SupGP

Epoch: Sep 15, 2026, 02:09 UTC

1 62872C 25022U   26258.09006944  .00070665  00000+0  20882-2 0  2584
2 62872  53.1578 326.6917 0001263  96.7235 240.8375 15.34349263    14

Track STARLINK-32849 in real time with AllMySat

Download on the App Store